TimePDT,TemperatureF,Dew PointF,Humidity,Sea Level PressureIn,VisibilityMPH,Wind Direction,Wind SpeedMPH,Gust SpeedMPH,PrecipitationIn,Events,Conditions,WindDirDegrees,DateUTC
12:54 AM,57.9,54.0,87,29.75,10.0,WSW,9.2,-,N/A,,Clear,240,2013-09-14 07:54:00
1:34 AM,59.0,53.6,82,29.77,10.0,WSW,9.2,-,N/A,,Partly Cloudy,240,2013-09-14 08:34:00
1:54 AM,57.0,53.1,87,29.75,10.0,WSW,5.8,-,N/A,,Partly Cloudy,250,2013-09-14 08:54:00
2:54 AM,55.9,53.1,90,29.75,10.0,West,6.9,-,N/A,,Partly Cloudy,260,2013-09-14 09:54:00
3:07 AM,57.2,53.6,88,29.77,10.0,WSW,6.9,-,N/A,,Mostly Cloudy,250,2013-09-14 10:07:00
3:43 AM,53.6,51.8,94,29.77,10.0,West,3.5,-,N/A,,Partly Cloudy,280,2013-09-14 10:43:00
3:54 AM,53.1,52.0,96,29.75,10.0,WSW,4.6,-,N/A,,Partly Cloudy,250,2013-09-14 10:54:00
4:08 AM,53.6,51.8,94,29.77,10.0,WSW,4.6,-,N/A,,Mostly Cloudy,250,2013-09-14 11:08:00
4:42 AM,55.4,53.6,94,29.77,10.0,West,4.6,-,N/A,,Mostly Cloudy,270,2013-09-14 11:42:00
4:54 AM,55.9,54.0,93,29.75,10.0,West,6.9,-,N/A,,Overcast,260,2013-09-14 11:54:00
5:46 AM,55.4,53.6,94,29.78,10.0,Calm,Calm,-,N/A,,Overcast,0,2013-09-14 12:46:00
5:54 AM,55.9,53.1,90,29.76,10.0,Calm,Calm,-,N/A,,Overcast,0,2013-09-14 12:54:00
6:54 AM,55.9,54.0,93,29.77,10.0,NW,4.6,-,N/A,,Overcast,320,2013-09-14 13:54:00
7:54 AM,57.0,54.0,89,29.78,10.0,NW,3.5,-,N/A,,Overcast,320,2013-09-14 14:54:00
8:54 AM,59.0,54.0,83,29.79,10.0,West,4.6,-,N/A,,Overcast,270,2013-09-14 15:54:00
9:54 AM,59.0,53.1,81,29.80,10.0,West,5.8,-,N/A,,Overcast,280,2013-09-14 16:54:00
10:29 AM,60.8,53.6,77,29.82,10.0,Calm,Calm,-,N/A,,Overcast,0,2013-09-14 17:29:00
10:54 AM,63.0,54.0,72,29.80,10.0,SSW,6.9,-,N/A,,Mostly Cloudy,210,2013-09-14 17:54:00
11:15 AM,64.4,53.6,68,29.82,10.0,SW,8.1,-,N/A,,Scattered Clouds,220,2013-09-14 18:15:00
11:54 AM,66.9,55.0,66,29.79,10.0,Variable,6.9,-,N/A,,Scattered Clouds,0,2013-09-14 18:54:00
12:54 PM,71.1,57.0,61,29.76,10.0,SSW,11.5,-,N/A,,Clear,200,2013-09-14 19:54:00
1:54 PM,73.0,57.0,57,29.74,10.0,SSW,16.1,-,N/A,,Clear,200,2013-09-14 20:54:00
2:54 PM,75.0,57.9,55,29.73,10.0,SSW,16.1,-,N/A,,Clear,200,2013-09-14 21:54:00
3:54 PM,75.9,57.9,54,29.71,10.0,SSW,16.1,-,N/A,,Clear,200,2013-09-14 22:54:00
4:54 PM,77.0,55.9,48,29.70,10.0,SW,15.0,-,N/A,,Clear,230,2013-09-14 23:54:00
5:54 PM,73.9,55.0,52,29.69,10.0,WSW,13.8,-,N/A,,Clear,240,2013-09-15 00:54:00
6:54 PM,68.0,54.0,61,29.69,10.0,SW,15.0,-,N/A,,Clear,230,2013-09-15 01:54:00
7:54 PM,62.1,54.0,75,29.71,10.0,SW,12.7,-,N/A,,Clear,230,2013-09-15 02:54:00
8:54 PM,60.1,54.0,80,29.73,10.0,SW,10.4,-,N/A,,Clear,230,2013-09-15 03:54:00
9:54 PM,59.0,54.0,83,29.73,10.0,SW,12.7,-,N/A,,Clear,230,2013-09-15 04:54:00
10:54 PM,57.9,53.1,84,29.74,10.0,SW,13.8,-,N/A,,Clear,230,2013-09-15 05:54:00
11:54 PM,57.0,53.1,87,29.75,10.0,West,9.2,-,N/A,,Clear,260,2013-09-15 06:54:00